Weather History for KMNN - August, 2013

Change the Weather History Date:

Saturday, August 3, 2013

  Actual Average (KDLZ) Record (KDLZ)
Temperature  
Mean Temperature 71 °F -  
Max Temperature 79 °F 84 °F 100 °F (1955)
Min Temperature 64 °F 60 °F 44 °F (1965)
Cooling Degree Days 6    
Growing Degree Days 21 (Base 50)    
Moisture  
Dew Point 63 °F    
Average Humidity 84    
Maximum Humidity 100    
Minimum Humidity 43    
Precipitation  
Precipitation 0.27 in - - ()
Sea Level Pressure  
Sea Level Pressure 29.99 in    
Wind  
Wind Speed 4 mph (NNW)    
Max Wind Speed 9 mph    
Max Gust Speed -    
Visibility 6 miles    
Events Rain    
Averages and records for this station are not official NWS values.
T = Trace of Precipitation, MM = Missing Value Source: NWS Daily Summary

Daily Weather History Graph

Daily Weather History Graph

Search for Another Location

Airport or City:

Trip Planner

Search our weather history database for the weather conditions in past years. The results will help you decide how hot, cold, wet, or windy it might be!

Date:

Astronomy

Aug. 03, 2013 Rise Set
Actual Time 6:31 AM EDT 8:44 PM EDT
Civil Twilight 6:00 AM EDT 9:15 PM EDT
Nautical Twilight 5:23 AM EDT 9:52 PM EDT
Astronomical Twilight 4:42 AM EDT 10:33 PM EDT
Moon 3:39 AM EDT 6:26 PM EDT
Length of Visible Light 15h 14m
Length of Day
14h 13m
Waning Crescent, 9% of the Moon is Illuminated
Aug 3
Waning Crescent
Aug 6
New
Aug 14
First Quarter
Aug 20
Full
Aug 28
Last Quarter

Hourly Weather History & Observations

Time (EDT) Temp. Dew Point Humidity Pressure Visibility Wind Dir Wind Speed Gust Speed Precip Events Conditions
12:53 AM 66.0 °F 64.0 °F 93% 29.98 in 3.0 mi WSW 9.2 mph - 0.06 in Rain Rain
1:53 AM 66.0 °F 64.9 °F 96% 29.99 in 3.0 mi SW 6.9 mph - 0.10 in Rain Rain
2:38 AM 66.2 °F 64.4 °F 94% 29.98 in 4.0 mi Calm Calm - 0.02 in   Overcast
2:53 AM 66.9 °F 64.9 °F 93% 29.98 in 4.0 mi Calm Calm - 0.02 in Rain Light Rain
3:33 AM 66.2 °F 64.4 °F 94% 29.99 in 2.5 mi WNW 3.5 mph - 0.02 in Rain Light Rain
3:53 AM 66.9 °F 64.9 °F 93% 29.98 in 2.5 mi West 3.5 mph - 0.04 in Rain Light Rain
4:03 AM 66.2 °F 64.4 °F 94% 29.98 in 4.0 mi West 3.5 mph - 0.01 in Rain Light Rain
4:23 AM 66.2 °F 64.4 °F 94% 29.98 in 3.0 mi West 3.5 mph - 0.03 in Rain Light Rain
4:44 AM 66.2 °F 64.4 °F 94% 29.98 in 4.0 mi Calm Calm - 0.03 in Rain Light Rain
4:53 AM 66.0 °F 64.9 °F 96% 29.97 in 4.0 mi Calm Calm - 0.03 in Rain Light Rain
5:46 AM 64.4 °F 64.4 °F 100% 29.96 in 2.5 mi South 5.8 mph - 0.01 in   Mostly Cloudy
5:53 AM 64.9 °F 64.9 °F 100% 29.95 in 2.0 mi South 5.8 mph - 0.01 in Rain Light Rain
6:01 AM 64.4 °F 64.4 °F 100% 29.97 in 2.0 mi South 5.8 mph - 0.00 in   Overcast
6:35 AM 64.4 °F 64.4 °F 100% 29.98 in 3.0 mi NE 3.5 mph - 0.00 in   Overcast
6:41 AM 64.4 °F 64.4 °F 100% 29.99 in 2.5 mi NE 3.5 mph - 0.00 in   Overcast
6:53 AM 64.9 °F 64.9 °F 100% 29.97 in 2.0 mi Calm Calm - 0.00 in   Overcast
7:19 AM 64.4 °F 64.4 °F 100% 29.98 in 1.8 mi Calm Calm - 0.01 in Rain Light Rain
7:26 AM 64.4 °F 64.4 °F 100% 29.98 in 1.8 mi South 4.6 mph - 0.01 in Rain Light Rain
7:53 AM 64.9 °F 64.0 °F 97% 29.98 in 2.5 mi Calm Calm - 0.01 in   Overcast
8:24 AM 66.2 °F 64.4 °F 94% 29.99 in 2.5 mi Calm Calm - N/A   Overcast
8:29 AM 66.2 °F 64.4 °F 94% 30.00 in 2.5 mi Calm Calm - N/A   Overcast
8:41 AM 66.2 °F 64.4 °F 94% 30.00 in 3.0 mi Calm Calm - N/A   Overcast
8:48 AM 66.2 °F 64.4 °F 94% 30.00 in 3.0 mi Calm Calm - N/A   Overcast
8:53 AM 66.9 °F 64.9 °F 93% 29.99 in 3.0 mi Calm Calm - N/A   Overcast
9:12 AM 68.0 °F 64.4 °F 88% 29.99 in 3.0 mi Calm Calm - N/A   Overcast
9:53 AM 69.1 °F 64.0 °F 84% 29.99 in 6.0 mi NNW 5.8 mph - N/A   Haze
10:02 AM 69.8 °F 64.4 °F 83% 30.00 in 6.0 mi NNW 5.8 mph - N/A   Overcast
10:13 AM 69.8 °F 64.4 °F 83% 30.00 in 7.0 mi NNW 5.8 mph - N/A   Overcast
10:18 AM 69.8 °F 64.4 °F 83% 30.00 in 8.0 mi North 4.6 mph - N/A   Mostly Cloudy
10:27 AM 71.6 °F 64.4 °F 78% 30.00 in 9.0 mi North 6.9 mph - N/A   Scattered Clouds
10:53 AM 72.0 °F 64.0 °F 76% 29.99 in 10.0 mi North 9.2 mph - N/A   Partly Cloudy
11:53 AM 73.9 °F 64.0 °F 71% 30.00 in 9.0 mi North 4.6 mph - N/A   Scattered Clouds
12:53 PM 75.0 °F 61.0 °F 62% 30.00 in 10.0 mi North 6.9 mph - N/A   Mostly Cloudy
1:53 PM 75.0 °F 60.1 °F 60% 30.00 in 8.0 mi NNW 9.2 mph - N/A   Mostly Cloudy
2:53 PM 77.0 °F 60.1 °F 56% 30.00 in 10.0 mi North 8.1 mph - N/A   Partly Cloudy
3:53 PM 78.1 °F 55.9 °F 46% 29.99 in 10.0 mi North 6.9 mph - N/A   Scattered Clouds
4:53 PM 77.0 °F 55.9 °F 48% 30.00 in 10.0 mi North 9.2 mph - N/A   Partly Cloudy
5:53 PM 78.1 °F 54.0 °F 43% 30.00 in 10.0 mi North 6.9 mph - N/A   Clear
6:53 PM 75.9 °F 57.0 °F 52% 29.99 in 10.0 mi North 6.9 mph - N/A   Clear
7:53 PM 73.9 °F 59.0 °F 59% 30.00 in 10.0 mi Calm Calm - N/A   Overcast
8:53 PM 69.1 °F 60.1 °F 73% 30.00 in 10.0 mi Calm Calm - N/A   Clear
9:53 PM 64.9 °F 60.1 °F 84% 30.02 in 10.0 mi Calm Calm - N/A   Clear
10:53 PM 64.9 °F 60.1 °F 84% 30.02 in 10.0 mi North 3.5 mph - N/A   Overcast
11:53 PM 64.0 °F 60.1 °F 87% 30.03 in 10.0 mi Calm Calm - N/A   Mostly Cloudy